Terminal Aerodrome Forecast
Issued by NWS San Angelo, TX

Home | Current Version | Previous Version | Text Only | Print | Product List | Glossary On
Versions: 1 2 3 4 5 6 7 8 9 10 11 12 13 14 15 16 17 18 19 20 21 22 23 24 25 26 27
000
FTUS44 KSJT 040400 AAA
TAFABI
TAF AMD
KABI 040417Z 0404/0424 VRB05KT P6SM BKN100
     FM041200 01010KT P6SM -SHRA OVC050
     FM041500 01012KT 5SM SHRA BR OVC012
     FM041800 01017G25KT 4SM RA BR OVC008
     FM042100 01021G30KT 2SM -FZRAPL BR OVC004=

USA.gov is the U.S. government's official web portal to all federal, state and local government web resources and services.